TimeCDT,TemperatureF,Dew PointF,Humidity,Sea Level PressureIn,VisibilityMPH,Wind Direction,Wind SpeedMPH,Gust SpeedMPH,PrecipitationIn,Events,Conditions,WindDirDegrees,DateUTC
12:15 AM,59.2,59.2,100,30.01,5.0,Calm,Calm,-,N/A,,Clear,0,2013-10-22 05:15:00
12:35 AM,59.0,58.6,99,30.01,7.0,Calm,Calm,-,N/A,,Scattered Clouds,0,2013-10-22 05:35:00
12:55 AM,58.1,57.9,99,30.00,5.0,Calm,Calm,-,N/A,,Scattered Clouds,0,2013-10-22 05:55:00
1:15 AM,58.5,58.5,100,30.00,4.0,Calm,Calm,-,N/A,,Clear,0,2013-10-22 06:15:00
1:35 AM,58.1,58.1,100,30.00,4.0,Calm,Calm,-,N/A,,Clear,0,2013-10-22 06:35:00
1:55 AM,58.1,58.1,100,30.01,3.0,Calm,Calm,-,N/A,,Clear,0,2013-10-22 06:55:00
2:15 AM,57.6,57.6,100,30.01,4.0,West,3.5,-,N/A,,Scattered Clouds,280,2013-10-22 07:15:00
2:35 AM,58.3,58.3,100,30.01,5.0,Calm,Calm,-,N/A,,Scattered Clouds,0,2013-10-22 07:35:00
2:55 AM,58.3,58.3,100,30.02,5.0,WNW,3.5,-,N/A,,Mostly Cloudy,290,2013-10-22 07:55:00
3:15 AM,59.9,59.9,100,30.01,7.0,Calm,Calm,-,N/A,,Mostly Cloudy,0,2013-10-22 08:15:00
3:35 AM,59.0,58.8,99,30.01,5.0,Calm,Calm,-,N/A,,Mostly Cloudy,0,2013-10-22 08:35:00
3:55 AM,58.6,58.5,99,30.00,4.0,Calm,Calm,-,N/A,,Scattered Clouds,0,2013-10-22 08:55:00
4:15 AM,59.5,59.4,99,30.00,4.0,Calm,Calm,-,N/A,,Scattered Clouds,0,2013-10-22 09:15:00
4:35 AM,58.6,58.6,100,30.00,2.0,Calm,Calm,-,N/A,,Scattered Clouds,0,2013-10-22 09:35:00
4:55 AM,56.8,56.8,100,30.00,2.5,Calm,Calm,-,N/A,,Scattered Clouds,0,2013-10-22 09:55:00
5:15 AM,56.3,56.3,100,30.01,3.0,Calm,Calm,-,N/A,,Mostly Cloudy,0,2013-10-22 10:15:00
5:35 AM,58.1,58.1,100,30.01,5.0,Calm,Calm,-,N/A,,Overcast,0,2013-10-22 10:35:00
5:55 AM,59.0,59.0,100,30.02,7.0,Calm,Calm,-,N/A,,Overcast,0,2013-10-22 10:55:00
6:15 AM,60.8,60.8,100,30.03,7.0,North,5.8,-,N/A,,Overcast,350,2013-10-22 11:15:00
6:35 AM,60.8,60.3,98,30.03,7.0,North,3.5,-,N/A,,Overcast,10,2013-10-22 11:35:00
6:55 AM,60.8,60.1,97,30.04,7.0,North,5.8,-,N/A,,Overcast,350,2013-10-22 11:55:00
7:15 AM,60.4,59.2,96,30.05,10.0,North,6.9,-,N/A,,Overcast,360,2013-10-22 12:15:00
7:35 AM,60.4,59.2,96,30.05,7.0,North,6.9,-,N/A,,Overcast,10,2013-10-22 12:35:00
7:55 AM,60.4,58.6,94,30.05,10.0,North,4.6,-,N/A,,Overcast,360,2013-10-22 12:55:00
8:15 AM,60.1,57.7,92,30.06,10.0,NNE,11.5,-,N/A,,Overcast,20,2013-10-22 13:15:00
8:35 AM,59.9,58.1,94,30.07,7.0,North,8.1,-,N/A,,Overcast,360,2013-10-22 13:35:00
8:55 AM,59.9,57.6,92,30.08,10.0,North,6.9,-,N/A,,Overcast,350,2013-10-22 13:55:00
9:15 AM,60.3,57.0,89,30.08,10.0,NNE,9.2,-,N/A,,Overcast,20,2013-10-22 14:15:00
9:35 AM,61.0,56.5,85,30.08,10.0,NNE,8.1,-,N/A,,Overcast,30,2013-10-22 14:35:00
9:55 AM,62.1,57.0,84,30.08,10.0,North,8.1,-,N/A,,Overcast,10,2013-10-22 14:55:00
10:15 AM,63.0,57.0,81,30.08,10.0,North,5.8,-,N/A,,Overcast,360,2013-10-22 15:15:00
10:35 AM,64.4,57.2,77,30.09,10.0,North,10.4,-,N/A,,Overcast,10,2013-10-22 15:35:00
10:55 AM,64.2,57.2,78,30.09,10.0,North,11.5,-,N/A,,Overcast,360,2013-10-22 15:55:00
11:15 AM,66.7,57.9,73,30.08,10.0,NNW,6.9,-,N/A,,Scattered Clouds,340,2013-10-22 16:15:00
11:35 AM,66.9,57.4,71,30.08,10.0,NNW,9.2,-,N/A,,Scattered Clouds,340,2013-10-22 16:35:00
11:55 AM,65.8,57.2,74,30.08,10.0,North,11.5,18.4,N/A,,Overcast,360,2013-10-22 16:55:00
12:15 PM,66.4,57.0,72,30.08,10.0,NNW,10.4,17.3,N/A,,Overcast,340,2013-10-22 17:15:00
12:35 PM,68.5,57.6,68,30.08,10.0,North,12.7,16.1,N/A,,Overcast,350,2013-10-22 17:35:00
12:55 PM,67.8,55.9,66,30.07,10.0,North,9.2,18.4,N/A,,Overcast,360,2013-10-22 17:55:00
1:15 PM,70.3,57.6,64,30.06,10.0,North,9.2,-,N/A,,Mostly Cloudy,350,2013-10-22 18:15:00
1:35 PM,70.7,57.6,63,30.05,10.0,NNW,9.2,-,N/A,,Mostly Cloudy,330,2013-10-22 18:35:00
1:55 PM,68.9,57.2,66,30.05,10.0,NNW,10.4,16.1,N/A,,Scattered Clouds,330,2013-10-22 18:55:00
2:15 PM,70.7,57.2,62,30.04,10.0,NW,9.2,-,N/A,,Scattered Clouds,310,2013-10-22 19:15:00
2:35 PM,70.5,55.9,60,30.04,10.0,NW,9.2,-,N/A,,Scattered Clouds,310,2013-10-22 19:35:00
2:55 PM,70.9,54.5,56,30.04,10.0,NW,11.5,-,N/A,,Clear,320,2013-10-22 19:55:00
3:15 PM,71.1,52.2,51,30.04,10.0,NNW,6.9,16.1,N/A,,Clear,340,2013-10-22 20:15:00
3:35 PM,71.6,52.9,52,30.03,10.0,NNW,9.2,-,N/A,,Clear,330,2013-10-22 20:35:00
3:55 PM,72.0,51.6,49,30.03,10.0,NNW,8.1,-,N/A,,Clear,340,2013-10-22 20:55:00
4:15 PM,72.0,51.1,48,30.03,10.0,North,11.5,-,N/A,,Clear,360,2013-10-22 21:15:00
4:35 PM,71.6,50.7,48,30.03,10.0,North,8.1,-,N/A,,Clear,10,2013-10-22 21:35:00
4:55 PM,71.6,51.4,49,30.03,10.0,North,8.1,-,N/A,,Clear,10,2013-10-22 21:55:00
5:15 PM,70.7,51.8,51,30.02,10.0,North,4.6,-,N/A,,Clear,10,2013-10-22 22:15:00
5:35 PM,70.0,54.5,58,30.02,10.0,NW,8.1,-,N/A,,Clear,310,2013-10-22 22:35:00
5:55 PM,68.7,54.5,60,30.02,10.0,WNW,5.8,-,N/A,,Clear,290,2013-10-22 22:55:00
6:15 PM,65.8,55.2,69,30.02,10.0,Calm,Calm,-,N/A,,Clear,0,2013-10-22 23:15:00
6:35 PM,62.1,55.9,80,30.03,10.0,WNW,3.5,-,N/A,,Clear,290,2013-10-22 23:35:00
6:55 PM,60.8,55.4,82,30.02,10.0,West,3.5,-,N/A,,Clear,270,2013-10-22 23:55:00
7:15 PM,58.1,54.9,89,30.03,10.0,Calm,Calm,-,N/A,,Clear,0,2013-10-23 00:15:00
7:35 PM,56.3,54.3,93,30.03,10.0,Calm,Calm,-,N/A,,Clear,0,2013-10-23 00:35:00
7:55 PM,55.6,54.0,94,30.03,10.0,Calm,Calm,-,N/A,,Clear,0,2013-10-23 00:55:00
8:15 PM,54.7,53.6,96,30.04,10.0,Calm,Calm,-,N/A,,Clear,0,2013-10-23 01:15:00
8:35 PM,54.7,54.3,99,30.04,10.0,Calm,Calm,-,N/A,,Clear,0,2013-10-23 01:35:00
8:55 PM,54.5,53.8,97,30.04,10.0,Calm,Calm,-,N/A,,Clear,0,2013-10-23 01:55:00
9:35 PM,53.2,52.3,97,30.05,10.0,Calm,Calm,-,N/A,,Clear,0,2013-10-23 02:35:00
10:15 PM,52.9,51.4,95,30.06,10.0,Calm,Calm,-,N/A,,Clear,0,2013-10-23 03:15:00
10:35 PM,54.1,52.0,92,30.06,10.0,Calm,Calm,-,N/A,,Clear,0,2013-10-23 03:35:00
10:55 PM,53.2,51.1,92,30.06,10.0,Calm,Calm,-,N/A,,Clear,0,2013-10-23 03:55:00
11:15 PM,54.9,51.3,88,30.06,10.0,Calm,Calm,-,N/A,,Clear,0,2013-10-23 04:15:00
11:35 PM,55.4,50.5,84,30.06,10.0,Calm,Calm,-,N/A,,Clear,0,2013-10-23 04:35:00
11:55 PM,55.4,50.4,83,30.06,10.0,Calm,Calm,-,N/A,,Clear,0,2013-10-23 04:55:00